FW4785 Weather Reports


time (UTC)temp
F
wind
direction
speed
knots
gust
knots
rain 1hr
in
rain 24hr
in
rain mn
in
humidity
%
barometer
mb
20260507010129 80 128 1.7 3.5 0.00 0.00 0.00 90 1008.9
20260507005629 80 128 2.6 3.5 0.00 0.00 0.00 89 1008.7
20260507005128 80 140 2.6 4.3 0.00 0.00 0.00 89 1008.6
20260507004856 80 117 2.6 5.2 0.00 0.00 0.00 89 1008.5
20260507004129 81 131 2.6 5.2 0.00 0.00 0.00 89 1008.4
20260507003858 81 113 3.5 7.0 0.00 0.00 0.00 88 1008.4
20260507003120 81 126 4.3 7.0 0.00 0.00 0.00 88 1008.4
20260507002613 81 0 4.3 7.0 0.00 0.00 0.00 88 1008.3
20260507002108 81 121 4.3 7.8 0.00 0.00 0.00 88 1008.4
20260507001608 81 144 4.3 7.8 0.00 0.00 0.00 87 1008.2
20260507001108 81 0 4.3 7.8 0.00 0.00 0.00 87 1008.2
20260507000609 82 0 4.3 7.8 0.00 0.00 0.00 87 1008.1
20260507000336 82 129 4.3 7.8 0.00 0.00 0.00 87 1008.1
20260506235604 82 0 3.5 7.0 0.00 0.00 0.00 86 1007.9
20260506235105 82 153 3.5 6.1 0.00 0.00 0.00 86 1007.9
20260506234830 82 175 4.3 8.7 0.00 0.00 0.00 86 1008.0
20260506234106 82 0 5.2 8.7 0.00 0.00 0.00 86 1007.8
20260506233605 83 173 4.3 7.8 0.00 0.00 0.00 85 1008.0
20260506233331 83 0 4.3 7.8 0.00 0.00 0.00 85 1008.0
20260506232606 83 121 4.3 7.8 0.00 0.00 0.00 84 1007.9
20260506232101 83 96 4.3 7.0 0.00 0.00 0.00 84 1007.8
20260506231601 83 151 4.3 8.7 0.00 0.00 0.00 85 1007.8
20260506231101 83 145 4.3 8.7 0.00 0.00 0.00 84 1007.8
20260506230601 83 155 3.5 7.0 0.00 0.00 0.00 84 1007.7
20260506225601 83 134 4.3 8.7 0.00 0.00 0.00 84 1007.7
20260506225056 83 162 5.2 8.7 0.00 0.00 0.00 85 1007.8
20260506224816 83 161 5.2 8.7 0.00 0.00 0.00 86 1007.7
20260506224043 82 150 5.2 7.8 0.00 0.00 0.00 86 1007.6
20260506223538 82 0 5.2 9.6 0.00 0.00 0.00 86 1007.7
20260506223259 82 0 5.2 9.6 0.00 0.00 0.00 85 1007.7
20260506222533 82 179 5.2 9.6 0.00 0.00 0.00 85 1007.7
20260506222033 82 0 5.2 9.6 0.00 0.00 0.00 86 1007.7
20260506221532 82 173 5.2 9.6 0.00 0.00 0.00 86 1007.8
20260506221524 82 0 5.2 8.7 0.00 0.00 0.00 86 1007.8
20260506220531 82 0 6.1 8.7 0.00 0.00 0.00 86 1007.7
20260506220030 82 0 6.1 8.7 0.00 0.00 0.00 86 1007.8
20260506215530 82 0 6.1 12.2 0.00 0.00 0.00 85 1007.7
20260506215030 82 153 6.1 12.2 0.00 0.00 0.00 85 1007.8
20260506214530 82 182 6.1 12.2 0.00 0.00 0.00 85 1007.8
20260506214031 82 164 7.0 12.2 0.00 0.00 0.00 85 1007.9
20260506213801 82 0 7.8 13.0 0.00 0.00 0.00 85 1007.8
20260506213036 82 0 7.8 14.8 0.00 0.00 0.00 85 1007.8
20260506212535 82 154 8.7 14.8 0.00 0.00 0.00 85 1007.7
20260506212032 82 148 9.6 13.9 0.00 0.00 0.00 85 1007.8
20260506211530 83 172 8.7 13.9 0.00 0.00 0.00 84 1007.9
20260506211030 83 153 7.8 12.2 0.00 0.00 0.00 83 1007.9
20260506210530 84 166 6.1 12.2 0.00 0.00 0.00 83 1008.0
20260506210253 84 192 5.2 9.6 0.00 0.00 0.00 82 1008.0
20260506205520 85 200 5.2 9.6 0.00 0.00 0.00 81 1008.0
20260506205014 85 184 5.2 8.7 0.00 0.00 0.00 80 1008.0
20260506204734 86 160 5.2 9.6 0.00 0.00 0.00 79 1008.0
20260506204008 86 201 6.1 12.2 0.00 0.00 0.00 78 1008.0
20260506203732 86 159 7.0 12.2 0.00 0.00 0.00 79 1007.9
20260506203235 87 123 6.1 11.3 0.00 0.00 0.00 77 1008.0
20260506202506 87 139 6.1 11.3 0.00 0.00 0.00 78 1007.9
20260506202235 87 220 5.2 11.3 0.00 0.00 0.00 77 1007.9
20260506201506 87 181 5.2 10.4 0.00 0.00 0.00 78 1008.0
20260506201006 87 203 5.2 10.4 0.00 0.00 0.00 79 1007.9
20260506200734 86 197 5.2 10.4 0.00 0.00 0.00 78 1008.0
20260506200237 86 192 5.2 9.6 0.00 0.00 0.00 80 1008.1
20260506195506 86 159 5.2 9.6 0.00 0.00 0.00 81 1008.2
20260506195006 85 171 5.2 8.7 0.00 0.00 0.00 82 1008.2
20260506194506 85 150 5.2 10.4 0.00 0.00 0.00 83 1008.3
20260506194006 85 222 5.2 10.4 0.00 0.00 0.00 83 1008.6
20260506193507 85 196 6.1 12.2 0.00 0.00 0.00 82 1008.5
20260506193005 85 169 7.0 12.2 0.00 0.00 0.00 82 1008.6
20260506192506 85 209 6.1 12.2 0.00 0.00 0.00 83 1008.8
20260506192005 84 204 6.1 12.2 0.00 0.00 0.00 84 1008.8
20260506191505 83 168 5.2 12.2 0.00 0.00 0.00 84 1009.0
20260506191006 83 207 5.2 12.2 0.00 0.00 0.00 84 1009.0
20260506190731 83 182 5.2 10.4 0.00 0.00 0.00 85 1009.1
20260506190713 83 175 5.2 11.3 0.00 0.00 0.00 85 1009.1
20260506185730 83 183 4.3 8.7 0.00 0.00 0.00 84 1009.2
20260506185500 82 209 4.3 8.7 0.00 0.00 0.00 86 1009.3
20260506184502 82 153 4.3 10.4 0.00 0.00 0.00 86 1009.4
20260506184227 82 189 4.3 10.4 0.00 0.00 0.00 86 1009.5
20260506183502 82 207 4.3 8.7 0.00 0.00 0.00 87 1009.5
20260506183001 82 153 4.3 10.4 0.00 0.00 0.00 86 1009.5
20260506182736 82 209 4.3 10.4 0.00 0.00 0.00 86 1009.5
20260506182001 82 0 3.5 7.8 0.00 0.00 0.00 86 1009.7
20260506181501 82 178 3.5 8.7 0.00 0.00 0.00 86 1009.6
20260506181001 82 208 4.3 8.7 0.00 0.00 0.00 87 1009.7
20260506180501 82 196 4.3 7.8 0.00 0.00 0.00 87 1009.8
20260506180000 82 166 3.5 7.8 0.00 0.00 0.00 87 1009.8
20260506175504 81 165 4.3 8.7 0.00 0.00 0.00 87 1009.9
20260506175004 81 192 4.3 8.7 0.00 0.00 0.00 87 1009.9
20260506174504 81 0 3.5 7.8 0.00 0.00 0.00 87 1009.8
20260506174004 81 212 3.5 7.8 0.00 0.00 0.00 88 1009.8
20260506173502 81 179 3.5 7.8 0.00 0.00 0.00 88 1009.8
20260506173002 81 132 4.3 7.0 0.00 0.00 0.00 88 1009.8
20260506172732 81 210 5.2 11.3 0.00 0.00 0.00 88 1009.7
20260506172004 81 161 7.0 11.3 0.00 0.00 0.00 88 1009.7
20260506171731 81 179 7.0 11.3 0.00 0.00 0.00 89 1009.7
20260506171002 81 165 6.1 10.4 0.00 0.00 0.00 89 1009.8
20260506170503 80 135 6.1 10.4 0.00 0.00 0.00 90 1009.8
20260506170001 80 0 7.0 10.4 0.00 0.00 0.00 90 1009.7
20260506165501 80 110 6.1 11.3 0.00 0.00 0.00 91 1009.8
20260506165001 80 174 7.0 11.3 0.00 0.00 0.00 90 1009.9
20260506164502 80 0 7.0 11.3 0.00 0.00 0.00 90 1009.9
20260506164001 80 0 6.1 11.3 0.00 0.00 0.00 90 1010.0
20260506163501 80 0 6.1 10.4 0.00 0.00 0.00 90 1009.8
20260506163001 80 140 7.0 12.2 0.00 0.00 0.00 90 1009.9
20260506162501 80 0 6.1 12.2 0.00 0.00 0.00 90 1009.8
20260506162001 79 111 6.1 8.7 0.00 0.00 0.00 91 1009.8
20260506161501 79 134 5.2 8.7 0.00 0.00 0.00 91 1009.8
20260506161001 79 118 5.2 9.6 0.00 0.00 0.00 92 1009.7
20260506160502 79 123 5.2 9.6 0.00 0.00 0.00 92 1009.6
20260506160000 79 116 4.3 7.8 0.00 0.00 0.00 92 1009.4
20260506155502 79 128 4.3 8.7 0.00 0.00 0.00 92 1009.5
20260506155453 79 159 4.3 8.7 0.00 0.00 0.00 92 1009.5
20260506154501 79 157 5.2 8.7 0.00 0.00 0.00 92 1009.4
20260506154000 79 157 5.2 9.6 0.00 0.00 0.00 92 1009.4
20260506153732 78 154 6.1 9.6 0.00 0.00 0.00 93 1009.4
20260506153238 78 141 6.1 9.6 0.00 0.00 0.00 93 1009.2
20260506152501 78 165 6.1 9.6 0.00 0.00 0.00 94 1009.1
20260506152000 78 155 6.1 9.6 0.00 0.00 0.00 94 1009.1
20260506151501 78 157 6.1 9.6 0.00 0.00 0.00 94 1009.1
20260506151234 78 161 4.3 8.7 0.00 0.00 0.00 94 1009.1
20260506150501 78 0 4.3 9.6 0.00 0.00 0.00 94 1009.1
20260506150001 78 0 5.2 9.6 0.00 0.00 0.00 94 1008.9
20260506145956 77 0 5.2 9.6 0.00 0.00 0.00 94 1009.0
20260506145003 77 128 4.3 7.8 0.00 0.00 0.00 95 1008.9
20260506144957 77 138 4.3 7.8 0.00 0.00 0.00 95 1008.9
20260506144003 77 123 4.3 7.0 0.00 0.00 0.00 95 1008.9
20260506143502 77 132 5.2 8.7 0.00 0.00 0.00 95 1008.7
20260506142955 77 136 5.2 8.7 0.00 0.00 0.00 95 1008.7
20260506142718 77 129 4.3 7.0 0.00 0.00 0.00 95 1008.7
20260506141943 77 121 3.5 6.1 0.00 0.00 0.00 96 1008.8
20260506141439 77 130 2.6 6.1 0.00 0.00 0.00 96 1008.8
20260506140939 77 104 2.6 5.2 0.00 0.00 0.00 96 1008.9
20260506140439 77 106 1.7 3.5 0.00 0.00 0.00 96 1008.8
20260506135939 77 123 1.7 3.5 0.00 0.00 0.00 96 1008.8
20260506135439 76 95 1.7 3.5 0.00 0.00 0.00 96 1008.7
20260506135209 76 80 1.7 3.5 0.00 0.00 0.00 96 1008.8
20260506134706 76 73 0.9 2.6 0.00 0.00 0.00 96 1008.8
20260506134435 76 82 1.7 3.5 0.00 0.00 0.00 96 1008.7
20260506133435 76 82 1.7 4.3 0.00 0.00 0.00 96 1008.7
20260506132935 76 76 1.7 4.3 0.00 0.00 0.00 96 1008.7
20260506132436 76 78 1.7 5.2 0.00 0.00 0.00 96 1008.6
20260506131935 76 121 2.6 5.2 0.00 0.00 0.00 96 1008.7
20260506131435 76 105 1.7 3.5 0.00 0.00 0.00 96 1008.7
20260506130934 76 101 0.9 1.7 0.00 0.00 0.00 96 1008.8
20260506130439 76 101 0.0 1.7 0.00 0.00 0.00 96 1008.7
20260506130429 76 76 0.9 2.6 0.00 0.00 0.00 96 1008.7
20260506125434 76 76 1.7 2.6 0.00 0.00 0.00 96 1008.6
20260506124935 76 69 0.9 2.6 0.00 0.00 0.00 96 1008.6
20260506124427 76 96 1.7 2.6 0.00 0.00 0.00 96 1008.6
20260506123920 76 93 1.7 2.6 0.00 0.00 0.00 96 1008.7
20260506123415 76 81 1.7 2.6 0.00 0.00 0.00 96 1008.7
20260506122908 76 81 1.7 2.6 0.00 0.00 0.00 96 1008.7
20260506122403 76 98 1.7 3.5 0.00 0.00 0.00 96 1008.5
20260506121902 76 105 1.7 5.2 0.00 0.00 0.00 96 1008.4
20260506121401 76 103 2.6 5.2 0.00 0.00 0.00 96 1008.3
20260506120906 76 123 2.6 5.2 0.00 0.00 0.00 96 1008.5
20260506120406 76 0 2.6 5.2 0.00 0.00 0.00 96 1008.4
20260506115906 76 108 2.6 5.2 0.00 0.00 0.00 96 1008.4
20260506115628 76 124 2.6 5.2 0.00 0.00 0.00 96 1008.4
20260506115132 76 124 2.6 5.2 0.00 0.00 0.00 96 1008.3
20260506114853 76 147 2.6 5.2 0.00 0.00 0.00 96 1008.3
20260506113907 76 128 3.5 6.1 0.00 0.00 0.00 96 1008.2
20260506113407 76 130 3.5 7.8 0.00 0.00 0.00 96 1008.1
20260506112903 76 124 3.5 7.8 0.00 0.00 0.00 96 1008.2
20260506112401 76 139 4.3 8.7 0.00 0.00 0.00 96 1008.2
20260506111901 76 0 4.3 8.7 0.00 0.00 0.00 96 1008.2
20260506111401 76 0 3.5 7.0 0.00 0.00 0.00 96 1008.1
20260506110900 76 152 3.5 6.1 0.00 0.00 0.00 96 1008.1
20260506110401 76 158 3.5 7.8 0.00 0.00 0.00 96 1008.2
20260506105902 76 138 3.5 7.8 0.00 0.00 0.00 96 1008.2
20260506105400 76 0 3.5 7.0 0.00 0.00 0.00 96 1008.1
20260506104902 76 0 2.6 7.0 0.00 0.00 0.00 96 1008.1
20260506104858 76 0 2.6 4.3 0.00 0.00 0.00 96 1008.1
20260506103901 75 161 2.6 5.2 0.00 0.00 0.00 96 1008.1
20260506103628 75 0 2.6 5.2 0.00 0.00 0.00 96 1007.9
20260506103123 75 137 3.5 6.1 0.00 0.00 0.00 96 1007.9
20260506102400 75 146 3.5 6.1 0.00 0.00 0.00 96 1007.8
20260506101901 75 118 2.6 5.2 0.00 0.00 0.00 96 1007.8
20260506101628 75 134 2.6 6.1 0.00 0.00 0.00 96 1007.9
20260506100901 75 128 2.6 6.1 0.00 0.00 0.00 96 1007.8
20260506100401 75 123 1.7 3.5 0.00 0.00 0.00 96 1007.6
20260506095901 75 132 2.6 4.3 0.00 0.00 0.00 96 1007.7
20260506095401 75 139 1.7 4.3 0.00 0.00 0.00 96 1007.8
20260506094901 75 127 1.7 4.3 0.00 0.00 0.00 96 1007.7
20260506094636 75 142 1.7 4.3 0.00 0.00 0.00 96 1007.7
20260506093901 75 136 2.6 3.5 0.00 0.00 0.00 96 1007.7
20260506093401 75 128 2.6 5.2 0.00 0.00 0.00 96 1007.7
20260506092901 75 128 2.6 5.2 0.00 0.00 0.00 96 1007.7
20260506092628 75 141 2.6 6.1 0.00 0.00 0.00 96 1007.7
20260506091900 75 145 2.6 6.1 0.00 0.00 0.00 96 1007.6
20260506091401 75 0 3.5 7.0 0.00 0.00 0.00 96 1007.5
20260506090901 75 130 3.5 7.0 0.00 0.00 0.00 96 1007.5
20260506090401 75 133 2.6 5.2 0.00 0.00 0.00 96 1007.4
20260506090134 75 134 2.6 5.2 0.00 0.00 0.00 96 1007.5
20260506085403 75 128 3.5 7.0 0.00 0.00 0.00 96 1007.6
20260506085359 75 126 4.3 7.0 0.00 0.00 0.00 96 1007.6
20260506084406 75 131 4.3 7.8 0.00 0.00 0.00 96 1007.4
20260506083906 75 146 4.3 8.7 0.00 0.00 0.00 95 1007.4
20260506083407 75 130 4.3 8.7 0.00 0.00 0.00 95 1007.3
20260506082907 75 151 3.5 7.8 0.00 0.00 0.00 95 1007.6
20260506082406 75 130 3.5 7.0 0.00 0.00 0.00 95 1007.7
20260506081906 76 138 3.5 7.0 0.00 0.00 0.00 95 1007.7
20260506081406 76 143 4.3 7.0 0.00 0.00 0.00 95 1007.7
20260506080906 76 133 4.3 7.8 0.00 0.00 0.00 95 1007.8
20260506080405 76 156 4.3 7.8 0.00 0.00 0.00 95 1007.8
20260506073407 76 163 2.6 6.1 0.00 0.00 0.00 93 1008.3
20260506072906 76 173 3.5 7.0 0.00 0.00 0.00 93 1008.2
20260506072406 77 144 3.5 7.0 0.00 0.00 0.00 93 1008.2
20260506071906 77 132 3.5 7.0 0.00 0.00 0.00 92 1008.4
20260506071406 77 138 3.5 7.0 0.00 0.00 0.00 92 1008.4
20260506071130 77 151 3.5 7.8 0.00 0.00 0.00 93 1008.5
20260506070630 77 157 3.5 8.7 0.00 0.00 0.00 93 1008.7
20260506062402 77 167 4.3 7.0 0.00 0.00 0.00 93 1009.0
20260506061902 77 171 4.3 7.8 0.00 0.00 0.00 93 1008.9
20260506061402 77 146 4.3 7.8 0.00 0.00 0.00 93 1009.0
20260506060902 77 173 5.2 8.7 0.00 0.00 0.00 93 1008.9
20260506060359 77 134 5.2 11.3 0.00 0.00 0.00 93 1008.8
20260506051344 77 128 7.0 12.2 0.00 0.00 0.00 92 1008.5
20260506050845 77 148 6.1 9.6 0.00 0.00 0.00 92 1008.4
20260506050348 77 161 6.1 10.4 0.00 0.00 0.00 92 1008.4
20260506044843 77 146 6.1 11.3 0.00 0.00 0.00 91 1008.4
20260506044610 77 157 7.0 11.3 0.00 0.00 0.00 91 1008.4
20260506044111 77 171 7.0 11.3 0.00 0.00 0.00 91 1008.5
20260506043342 77 142 6.1 11.3 0.00 0.00 0.00 91 1008.5
20260506042842 77 144 6.1 11.3 0.00 0.00 0.00 91 1008.4
20260506042343 77 164 6.1 11.3 0.00 0.00 0.00 91 1008.4
20260506042113 77 148 7.0 11.3 0.00 0.00 0.00 91 1008.5
20260506041839 77 184 6.1 12.2 0.00 0.00 0.00 91 1008.4
20260506040843 77 182 7.0 12.2 0.00 0.00 0.00 91 1008.4
20260506040343 78 155 7.8 12.2 0.00 0.00 0.00 91 1008.4
20260506035842 78 139 7.8 13.9 0.00 0.00 0.00 91 1008.4
20260506035343 78 140 7.8 13.9 0.00 0.00 0.00 91 1008.4
20260506034843 78 130 7.0 13.0 0.00 0.00 0.00 91 1008.3
20260506034339 78 153 7.0 14.8 0.00 0.00 0.00 90 1008.4
20260506033838 78 161 7.0 14.8 0.00 0.00 0.00 90 1008.5
20260506033339 78 171 7.0 11.3 0.00 0.00 0.00 90 1008.4
20260506032838 78 158 7.0 12.2 0.00 0.00 0.00 90 1008.5
20260506032604 78 91 6.1 12.2 0.00 0.00 0.00 90 1008.3
20260506031838 78 138 7.0 12.2 0.00 0.00 0.00 90 1008.4
20260506031337 78 155 7.0 12.2 0.00 0.00 0.00 90 1008.4
20260506031105 78 165 7.0 12.2 0.00 0.00 0.00 90 1008.3
20260506030335 77 138 7.0 12.2 0.00 0.00 0.00 90 1008.1
20260506025835 78 152 6.1 12.2 0.00 0.00 0.00 90 1008.1
20260506025338 78 153 7.0 12.2 0.00 0.00 0.00 90 1007.9
20260506024835 78 161 7.8 14.8 0.00 0.00 0.00 90 1008.0
20260506024334 78 155 7.0 14.8 0.00 0.00 0.00 90 1007.8
20260506023834 78 168 6.1 13.0 0.00 0.00 0.00 91 1007.8
20260506023333 77 155 7.0 13.0 0.00 0.00 0.00 90 1007.7
20260506023051 78 157 6.1 12.2 0.00 0.00 0.00 90 1007.5
20260506023035 78 155 6.1 12.2 0.00 0.00 0.00 91 1007.6
20260506021829 77 148 7.0 13.0 0.00 0.00 0.00 90 1007.4
20260506021553 77 127 7.0 13.0 0.00 0.00 0.00 90 1007.3
20260506020830 77 150 7.0 12.2 0.00 0.00 0.00 90 1007.3
20260506020330 77 161 7.0 14.8 0.00 0.00 0.00 90 1007.2
20260506015831 77 130 7.0 14.8 0.00 0.00 0.00 90 1007.2
20260506015558 77 130 6.1 13.0 0.00 0.00 0.00 91 1007.1
20260506014832 77 140 6.1 10.4 0.00 0.00 0.00 91 1007.1
20260506014331 77 182 5.2 10.4 0.00 0.00 0.00 91 1006.9
20260506013830 77 148 5.2 10.4 0.00 0.00 0.00 91 1006.8
20260506013335 77 142 6.1 8.7 0.00 0.00 0.00 91 1006.6
20260506012833 77 145 6.1 10.4 0.00 0.00 0.00 90 1006.4
20260506012335 77 150 6.1 10.4 0.00 0.00 0.00 90 1006.4
20260506011833 78 144 6.1 9.6 0.00 0.00 0.00 90 1006.2
20260506011334 78 140 6.1 9.6 0.00 0.00 0.00 90 1006.3
20260506010828 78 155 6.1 12.2 0.00 0.00 0.00 89 1006.2